Tracking 25953 objects as of 15-Aug-2022
HD Live streaming from Space Station
objects crossing your sky now

STARLINK-2100

Track STARLINK-2100 now!
10-day predictions
STARLINK-2100 is classified as:


NORAD ID: 47380
Int'l Code: 2021-005AH
Perigee: 553.2 km
Apogee: 555.4 km
Inclination: 53.1 °
Period: 95.6 minutes
Semi major axis: 6925 km
RCS: Unknown
Launch date: January 20, 2021
Source: United States (US)
Launch site: AIR FORCE EASTERN TEST RANGE (AFETR)
aabbcc
Your satellite tracking list
Your tracking list is empty




NASA's NSSDC Master Catalog

Two Line Element Set (TLE):
1 47380U 21005AH  22227.14697871  .00002162  00000-0  16396-3 0  9997
2 47380  53.0545 118.9505 0001596  69.2863 290.8297 15.06406328 88086
Source of the keplerian elements: AFSPC